Time,TemperatureF,DewpointF,PressureIn,WindDirection,WindDirectionDegrees,WindSpeedMPH,WindSpeedGustMPH,Humidity,HourlyPrecipIn,Conditions,Clouds,dailyrainin,SoftwareType,DateUTC
2013-02-21 00:03:00,20.0,17.0,-100.00,WNW,285,0.0,0.0,85,0.00,,,-99.99,,2013-02-21 05:03:00,
2013-02-21 00:12:00,20.0,17.0,-100.00,WNW,285,0.0,0.0,85,4.53,,,-99.99,,2013-02-21 05:12:00,
2013-02-21 00:22:00,20.0,17.0,-100.00,WNW,300,0.0,0.0,85,6.77,,,-99.99,,2013-02-21 05:22:00,
2013-02-21 00:36:00,20.0,17.0,-100.00,WNW,295,0.0,0.0,84,1.10,,,-99.99,,2013-02-21 05:36:00,
2013-02-21 00:44:00,20.0,17.0,-100.00,WNW,295,0.0,0.0,85,0.00,,,-99.99,,2013-02-21 05:44:00,
2013-02-21 00:53:00,20.0,17.0,-100.00,WNW,290,0.0,0.0,85,0.55,,,-99.99,,2013-02-21 05:53:00,
2013-02-21 01:01:00,20.0,17.0,-100.00,West,280,0.0,0.0,85,1.10,,,-99.99,,2013-02-21 06:01:00,
2013-02-21 01:11:00,20.0,17.0,-100.00,WNW,285,0.0,0.0,85,1.69,,,-99.99,,2013-02-21 06:11:00,
2013-02-21 01:21:00,20.0,17.0,-100.00,NW,320,0.0,0.0,85,0.00,,,-99.99,,2013-02-21 06:21:00,
2013-02-21 01:31:00,20.0,16.0,-100.00,NW,310,0.0,0.0,83,3.39,,,-99.99,,2013-02-21 06:31:00,
2013-02-21 01:41:00,20.0,16.0,-100.00,NW,315,0.0,0.0,81,1.10,,,-99.99,,2013-02-21 06:41:00,
2013-02-21 01:51:00,20.0,16.0,-100.00,NW,320,0.0,0.0,82,0.00,,,-99.99,,2013-02-21 06:51:00,
2013-02-21 02:01:00,20.0,15.0,-100.00,NW,315,0.0,0.0,79,0.00,,,-99.99,,2013-02-21 07:01:00,
2013-02-21 02:11:00,20.0,15.0,-100.00,NW,320,0.0,0.0,78,0.00,,,-99.99,,2013-02-21 07:11:00,
2013-02-21 02:21:00,20.0,14.0,-100.00,NW,320,0.0,0.0,77,0.00,,,-99.99,,2013-02-21 07:21:00,
2013-02-21 02:32:00,20.0,14.0,-100.00,NNW,330,0.0,0.0,77,0.55,,,-99.99,,2013-02-21 07:32:00,
2013-02-21 02:42:00,20.0,13.0,-100.00,NW,315,0.0,0.0,75,0.00,,,-99.99,,2013-02-21 07:42:00,
2013-02-21 02:52:00,20.0,13.0,-100.00,NW,325,0.0,0.0,75,0.00,,,-99.99,,2013-02-21 07:52:00,
2013-02-21 03:01:00,20.0,13.0,-100.00,NW,315,0.0,0.0,73,0.00,,,-99.99,,2013-02-21 08:01:00,
2013-02-21 03:11:00,20.0,13.0,-100.00,NW,315,0.0,0.0,73,0.00,,,-99.99,,2013-02-21 08:11:00,
2013-02-21 03:21:00,20.0,13.0,-100.00,NW,310,0.0,0.0,74,0.00,,,-99.99,,2013-02-21 08:21:00,
2013-02-21 03:32:00,20.0,13.0,-100.00,NW,310,0.0,0.0,75,0.00,,,-99.99,,2013-02-21 08:32:00,
2013-02-21 03:42:00,20.0,14.0,-100.00,NW,315,0.0,0.0,76,0.00,,,-99.99,,2013-02-21 08:42:00,
2013-02-21 03:52:00,20.0,13.0,-100.00,NW,305,0.0,0.0,75,0.00,,,-99.99,,2013-02-21 08:52:00,
2013-02-21 04:01:00,20.0,13.0,-100.00,NW,325,0.0,0.0,75,0.00,,,-99.99,,2013-02-21 09:01:00,
2013-02-21 04:11:00,20.0,14.0,-100.00,NNW,335,0.0,0.0,76,0.00,,,-99.99,,2013-02-21 09:11:00,
2013-02-21 04:22:00,20.0,14.0,-100.00,NNW,335,0.0,0.0,77,0.00,,,-99.99,,2013-02-21 09:22:00,
2013-02-21 04:32:00,20.0,14.0,-100.00,WNW,295,0.0,0.0,77,0.00,,,-99.99,,2013-02-21 09:32:00,
2013-02-21 04:41:00,20.0,13.0,-100.00,NW,310,0.0,0.0,76,0.00,,,-99.99,,2013-02-21 09:41:00,
2013-02-21 04:51:00,20.0,14.0,-100.00,NW,305,0.0,0.0,77,0.00,,,-99.99,,2013-02-21 09:51:00,
2013-02-21 05:01:00,20.0,14.0,-100.00,NNW,330,0.0,0.0,76,0.55,,,-99.99,,2013-02-21 10:01:00,
2013-02-21 05:11:00,20.0,14.0,-100.00,NW,325,0.0,0.0,78,0.00,,,-99.99,,2013-02-21 10:11:00,
2013-02-21 05:21:00,20.0,13.0,-100.00,NW,315,0.0,0.0,76,0.00,,,-99.99,,2013-02-21 10:21:00,
2013-02-21 05:31:00,20.0,13.0,-100.00,NW,320,0.0,0.0,76,0.00,,,-99.99,,2013-02-21 10:31:00,
2013-02-21 05:41:00,20.0,13.0,-100.00,NW,310,0.0,0.0,76,0.00,,,-99.99,,2013-02-21 10:41:00,
2013-02-21 05:51:00,20.0,14.0,-100.00,NW,315,0.0,0.0,76,0.55,,,-99.99,,2013-02-21 10:51:00,
2013-02-21 06:01:00,20.0,13.0,-100.00,NW,305,0.0,0.0,76,0.00,,,-99.99,,2013-02-21 11:01:00,
2013-02-21 06:11:00,20.0,14.0,-100.00,NW,320,0.0,0.0,77,0.00,,,-99.99,,2013-02-21 11:11:00,
2013-02-21 06:21:00,20.0,14.0,-100.00,NW,305,0.0,0.0,76,0.00,,,-99.99,,2013-02-21 11:21:00,
2013-02-21 06:31:00,20.0,14.0,-100.00,NW,310,0.0,0.0,76,0.00,,,-99.99,,2013-02-21 11:31:00,
2013-02-21 06:41:00,20.0,14.0,-100.00,NW,305,0.0,0.0,76,0.00,,,-99.99,,2013-02-21 11:41:00,
2013-02-21 06:51:00,20.0,14.0,-100.00,NW,310,0.0,0.0,76,0.00,,,-99.99,,2013-02-21 11:51:00,
2013-02-21 07:01:00,20.0,14.0,-100.00,NW,320,0.0,0.0,77,0.00,,,-99.99,,2013-02-21 12:01:00,
2013-02-21 07:11:00,20.0,14.0,-100.00,NW,320,0.0,0.0,77,0.00,,,-99.99,,2013-02-21 12:11:00,
2013-02-21 07:21:00,20.0,14.0,-100.00,NNW,335,0.0,0.0,77,0.00,,,-99.99,,2013-02-21 12:21:00,
2013-02-21 07:32:00,20.0,15.0,-100.00,NW,325,0.0,0.0,77,0.00,,,-99.99,,2013-02-21 12:32:00,
2013-02-21 07:42:00,20.0,14.0,-100.00,NNW,335,0.0,0.0,77,0.00,,,-99.99,,2013-02-21 12:42:00,
2013-02-21 07:52:00,20.0,14.0,-100.00,NW,310,0.0,0.0,77,0.00,,,-99.99,,2013-02-21 12:52:00,
2013-02-21 08:02:00,20.0,14.0,-100.00,NW,320,0.0,0.0,77,0.00,,,-99.99,,2013-02-21 13:02:00,
2013-02-21 08:12:00,20.0,14.0,-100.00,NNW,340,0.0,0.0,77,0.00,,,-99.99,,2013-02-21 13:12:00,
2013-02-21 08:22:00,20.0,15.0,-100.00,NNW,340,0.0,0.0,77,0.00,,,-99.99,,2013-02-21 13:22:00,
2013-02-21 08:32:00,20.0,14.0,-100.00,North,0,0.0,0.0,78,0.00,,,-99.99,,2013-02-21 13:32:00,
2013-02-21 08:41:00,20.0,15.0,-100.00,NNW,340,0.0,0.0,78,0.00,,,-99.99,,2013-02-21 13:41:00,
2013-02-21 08:51:00,21.0,15.0,-100.00,NE,50,0.0,0.0,78,0.00,,,-99.99,,2013-02-21 13:51:00,
2013-02-21 09:02:00,21.0,15.0,-100.00,North,0,0.0,0.0,78,0.00,,,-99.99,,2013-02-21 14:02:00,
2013-02-21 09:11:00,20.0,14.0,-100.00,NNW,340,0.0,0.0,77,0.00,,,-99.99,,2013-02-21 14:11:00,
2013-02-21 09:21:00,21.0,15.0,-100.00,NW,325,0.0,0.0,77,0.00,,,-99.99,,2013-02-21 14:21:00,
2013-02-21 09:32:00,21.0,15.0,-100.00,NNW,345,0.0,0.0,77,0.00,,,-99.99,,2013-02-21 14:32:00,
2013-02-21 09:42:00,21.0,15.0,-100.00,NNW,330,0.0,0.0,77,0.00,,,-99.99,,2013-02-21 14:42:00,
2013-02-21 09:52:00,21.0,15.0,-100.00,NE,40,0.0,0.0,77,0.00,,,-99.99,,2013-02-21 14:52:00,
2013-02-21 10:02:00,21.0,15.0,-100.00,NNE,25,0.0,0.0,77,0.00,,,-99.99,,2013-02-21 15:02:00,
2013-02-21 10:12:00,21.0,15.0,-100.00,NW,325,0.0,0.0,77,0.00,,,-99.99,,2013-02-21 15:12:00,
2013-02-21 10:21:00,22.0,15.0,-100.00,NNW,345,0.0,0.0,76,0.00,,,-99.99,,2013-02-21 15:21:00,
2013-02-21 10:32:00,21.0,14.0,-100.00,NE,50,0.0,0.0,75,0.00,,,-99.99,,2013-02-21 15:32:00,
2013-02-21 10:42:00,21.0,15.0,-100.00,East,90,0.0,0.0,76,0.00,,,-99.99,,2013-02-21 15:42:00,
2013-02-21 10:52:00,21.0,15.0,-100.00,ENE,75,0.0,0.0,77,0.00,,,-99.99,,2013-02-21 15:52:00,
2013-02-21 11:02:00,21.0,15.0,-100.00,East,95,0.0,0.0,78,0.55,,,-99.99,,2013-02-21 16:02:00,
2013-02-21 11:12:00,21.0,15.0,-100.00,ESE,110,0.0,0.0,77,0.00,,,-99.99,,2013-02-21 16:12:00,
2013-02-21 11:22:00,21.0,15.0,-100.00,ENE,70,0.0,0.0,77,0.00,,,-99.99,,2013-02-21 16:22:00,
2013-02-21 11:32:00,21.0,15.0,-100.00,East,85,0.0,0.0,76,0.00,,,-99.99,,2013-02-21 16:32:00,
2013-02-21 11:42:00,21.0,15.0,-100.00,ENE,75,0.0,0.0,76,0.00,,,-99.99,,2013-02-21 16:42:00,
2013-02-21 11:52:00,21.0,15.0,-100.00,ENE,75,0.0,0.0,76,0.00,,,-99.99,,2013-02-21 16:52:00,
2013-02-21 12:01:00,22.0,15.0,-100.00,NNE,30,0.0,0.0,75,0.00,,,-99.99,,2013-02-21 17:01:00,
2013-02-21 12:11:00,22.0,15.0,-100.00,NNE,25,0.0,0.0,74,0.00,,,-99.99,,2013-02-21 17:11:00,
2013-02-21 12:21:00,22.0,15.0,-100.00,ENE,75,0.0,0.0,76,0.00,,,-99.99,,2013-02-21 17:21:00,
2013-02-21 12:32:00,22.0,16.0,-100.00,East,90,0.0,0.0,76,0.00,,,-99.99,,2013-02-21 17:32:00,
2013-02-21 12:42:00,22.0,16.0,-100.00,East,100,0.0,0.0,75,0.00,,,-99.99,,2013-02-21 17:42:00,
2013-02-21 12:52:00,22.0,16.0,-100.00,East,85,0.0,0.0,75,0.00,,,-99.99,,2013-02-21 17:52:00,
2013-02-21 13:02:00,23.0,16.0,-100.00,NNE,15,0.0,0.0,74,0.00,,,-99.99,,2013-02-21 18:02:00,
2013-02-21 13:12:00,23.0,16.0,-100.00,NE,40,0.0,0.0,74,0.00,,,-99.99,,2013-02-21 18:12:00,
2013-02-21 13:22:00,23.0,16.0,-100.00,NE,40,0.0,0.0,74,0.00,,,-99.99,,2013-02-21 18:22:00,
2013-02-21 13:32:00,23.0,16.0,-100.00,ENE,75,0.0,0.0,75,0.00,,,-99.99,,2013-02-21 18:32:00,
2013-02-21 13:42:00,23.0,17.0,-100.00,East,80,0.0,0.0,76,0.00,,,-99.99,,2013-02-21 18:42:00,
2013-02-21 13:51:00,23.0,17.0,-100.00,ENE,75,0.0,0.0,75,0.00,,,-99.99,,2013-02-21 18:51:00,
2013-02-21 14:01:00,23.0,17.0,-100.00,ENE,75,0.0,0.0,75,0.00,,,-99.99,,2013-02-21 19:01:00,
2013-02-21 14:12:00,23.0,17.0,-100.00,ENE,75,0.0,0.0,75,0.00,,,-99.99,,2013-02-21 19:12:00,
2013-02-21 14:21:00,23.0,16.0,-100.00,NNE,30,0.0,0.0,74,0.00,,,-99.99,,2013-02-21 19:21:00,
2013-02-21 14:32:00,24.0,17.0,-100.00,East,80,0.0,0.0,75,0.00,,,-99.99,,2013-02-21 19:32:00,
2013-02-21 14:42:00,24.0,17.0,-100.00,East,85,0.0,0.0,76,0.00,,,-99.99,,2013-02-21 19:42:00,
2013-02-21 14:52:00,24.0,17.0,-100.00,East,80,0.0,0.0,74,0.00,,,-99.99,,2013-02-21 19:52:00,
2013-02-21 15:01:00,24.0,17.0,-100.00,NE,55,0.0,0.0,73,0.00,,,-99.99,,2013-02-21 20:01:00,
2013-02-21 15:11:00,24.0,17.0,-100.00,East,80,0.0,0.0,75,0.00,,,-99.99,,2013-02-21 20:11:00,
2013-02-21 15:21:00,24.0,17.0,-100.00,NE,50,0.0,0.0,75,0.00,,,-99.99,,2013-02-21 20:21:00,
2013-02-21 15:32:00,24.0,18.0,-100.00,East,80,0.0,0.0,76,0.00,,,-99.99,,2013-02-21 20:32:00,
2013-02-21 15:41:00,25.0,19.0,-100.00,ENE,70,0.0,0.0,77,0.00,,,-99.99,,2013-02-21 20:41:00,
2013-02-21 15:52:00,24.0,17.0,-100.00,ENE,75,0.0,0.0,75,0.00,,,-99.99,,2013-02-21 20:52:00,
2013-02-21 16:02:00,24.0,18.0,-100.00,ENE,75,0.0,0.0,76,0.00,,,-99.99,,2013-02-21 21:02:00,
2013-02-21 16:12:00,24.0,17.0,-100.00,East,80,0.0,0.0,76,0.00,,,-99.99,,2013-02-21 21:12:00,
2013-02-21 16:21:00,24.0,18.0,-100.00,ENE,70,0.0,0.0,77,0.00,,,-99.99,,2013-02-21 21:21:00,
2013-02-21 16:32:00,24.0,18.0,-100.00,East,85,0.0,0.0,76,0.00,,,-99.99,,2013-02-21 21:32:00,
2013-02-21 16:42:00,24.0,18.0,-100.00,East,80,0.0,0.0,77,0.00,,,-99.99,,2013-02-21 21:42:00,
2013-02-21 16:52:00,25.0,19.0,-100.00,East,85,0.0,0.0,77,0.00,,,-99.99,,2013-02-21 21:52:00,
2013-02-21 17:01:00,24.0,18.0,-100.00,East,80,0.0,0.0,77,0.00,,,-99.99,,2013-02-21 22:01:00,
2013-02-21 17:11:00,24.0,18.0,-100.00,ENE,75,0.0,0.0,76,0.00,,,-99.99,,2013-02-21 22:11:00,
2013-02-21 17:21:00,25.0,18.0,-100.00,East,80,0.0,0.0,77,0.00,,,-99.99,,2013-02-21 22:21:00,
2013-02-21 17:32:00,24.0,18.0,-100.00,ENE,75,0.0,0.0,76,0.00,,,-99.99,,2013-02-21 22:32:00,
2013-02-21 17:42:00,24.0,18.0,-100.00,East,100,0.0,0.0,75,0.00,,,-99.99,,2013-02-21 22:42:00,
2013-02-21 17:52:00,24.0,18.0,-100.00,East,80,0.0,0.0,76,0.00,,,-99.99,,2013-02-21 22:52:00,
2013-02-21 18:01:00,25.0,18.0,-100.00,East,95,0.0,0.0,76,0.00,,,-99.99,,2013-02-21 23:01:00,
2013-02-21 18:11:00,24.0,18.0,-100.00,East,95,0.0,0.0,76,0.00,,,-99.99,,2013-02-21 23:11:00,
2013-02-21 18:21:00,25.0,19.0,-100.00,East,80,0.0,0.0,78,0.00,,,-99.99,,2013-02-21 23:21:00,
2013-02-21 18:32:00,24.0,19.0,-100.00,ENE,75,0.0,0.0,78,0.00,,,-99.99,,2013-02-21 23:32:00,
2013-02-21 18:41:00,24.0,18.0,-100.00,East,80,0.0,0.0,78,0.00,,,-99.99,,2013-02-21 23:41:00,
2013-02-21 18:52:00,24.0,19.0,-100.00,ENE,75,0.0,0.0,78,0.00,,,-99.99,,2013-02-21 23:52:00,
2013-02-21 19:01:00,24.0,19.0,-100.00,East,80,0.0,0.0,80,0.00,,,-99.99,,2013-02-22 00:01:00,
2013-02-21 19:11:00,24.0,19.0,-100.00,East,95,0.0,0.0,79,0.00,,,-99.99,,2013-02-22 00:11:00,
2013-02-21 19:21:00,24.0,19.0,-100.00,East,90,0.0,0.0,79,0.00,,,-99.99,,2013-02-22 00:21:00,
2013-02-21 19:32:00,24.0,19.0,-100.00,East,80,0.0,0.0,79,0.00,,,-99.99,,2013-02-22 00:32:00,
2013-02-21 19:42:00,24.0,19.0,-100.00,East,80,0.0,0.0,80,0.00,,,-99.99,,2013-02-22 00:42:00,
2013-02-21 19:51:00,24.0,19.0,-100.00,ENE,70,0.0,0.0,80,0.00,,,-99.99,,2013-02-22 00:51:00,
2013-02-21 20:01:00,24.0,19.0,-100.00,ENE,75,0.0,0.0,81,0.00,,,-99.99,,2013-02-22 01:01:00,
2013-02-21 20:11:00,24.0,19.0,-100.00,ENE,70,0.0,0.0,81,0.00,,,-99.99,,2013-02-22 01:11:00,
2013-02-21 20:21:00,24.0,19.0,-100.00,East,80,0.0,0.0,80,0.00,,,-99.99,,2013-02-22 01:21:00,
2013-02-21 20:32:00,24.0,18.0,-100.00,East,85,0.0,0.0,80,0.00,,,-99.99,,2013-02-22 01:32:00,
2013-02-21 20:42:00,24.0,18.0,-100.00,East,85,0.0,0.0,80,0.00,,,-99.99,,2013-02-22 01:42:00,
2013-02-21 20:51:00,23.0,18.0,-100.00,East,85,0.0,0.0,80,0.00,,,-99.99,,2013-02-22 01:51:00,
2013-02-21 21:02:00,23.0,18.0,-100.00,ENE,75,0.0,0.0,80,0.00,,,-99.99,,2013-02-22 02:02:00,
2013-02-21 21:11:00,23.0,18.0,-100.00,ENE,75,0.0,0.0,80,0.00,,,-99.99,,2013-02-22 02:11:00,
2013-02-21 21:21:00,23.0,18.0,-100.00,East,85,0.0,0.0,80,0.00,,,-99.99,,2013-02-22 02:21:00,
2013-02-21 21:32:00,23.0,18.0,-100.00,East,80,0.0,0.0,80,0.00,,,-99.99,,2013-02-22 02:32:00,
2013-02-21 21:42:00,23.0,18.0,-100.00,East,85,0.0,0.0,79,0.00,,,-99.99,,2013-02-22 02:42:00,
2013-02-21 21:52:00,23.0,18.0,-100.00,East,90,0.0,0.0,79,0.00,,,-99.99,,2013-02-22 02:52:00,
2013-02-21 22:02:00,23.0,18.0,-100.00,East,90,0.0,0.0,80,0.00,,,-99.99,,2013-02-22 03:02:00,
2013-02-21 22:11:00,23.0,18.0,-100.00,East,100,0.0,0.0,79,0.00,,,-99.99,,2013-02-22 03:11:00,
2013-02-21 22:21:00,24.0,18.0,-100.00,East,100,0.0,0.0,79,0.00,,,-99.99,,2013-02-22 03:21:00,
2013-02-21 22:32:00,24.0,19.0,-100.00,East,85,0.0,0.0,81,0.00,,,-99.99,,2013-02-22 03:32:00,
2013-02-21 22:42:00,24.0,19.0,-100.00,East,95,0.0,0.0,82,0.00,,,-99.99,,2013-02-22 03:42:00,
2013-02-21 22:51:00,24.0,19.0,-100.00,East,95,0.0,0.0,80,0.00,,,-99.99,,2013-02-22 03:51:00,
2013-02-21 23:02:00,24.0,19.0,-100.00,East,95,0.0,0.0,78,0.00,,,-99.99,,2013-02-22 04:02:00,
2013-02-21 23:11:00,24.0,18.0,-100.00,East,85,0.0,0.0,78,0.00,,,-99.99,,2013-02-22 04:11:00,
2013-02-21 23:21:00,24.0,18.0,-100.00,East,85,0.0,0.0,77,0.00,,,-99.99,,2013-02-22 04:21:00,
2013-02-21 23:32:00,24.0,18.0,-100.00,East,95,0.0,0.0,76,0.00,,,-99.99,,2013-02-22 04:32:00,
2013-02-21 23:42:00,24.0,18.0,-100.00,East,90,0.0,0.0,77,0.00,,,-99.99,,2013-02-22 04:42:00,
2013-02-21 23:51:00,24.0,18.0,-100.00,East,90,0.0,0.0,76,0.00,,,-99.99,,2013-02-22 04:51:00,